(214240) = 2005 ES183

Discovered at Mount Lemmon on 2005-03-09 by Mt. Lemmon Survey.

Orbit

Orbit type: Main Belt

Note: WebGL enabled browser required.

epoch2024-03-31.0
epoch JD2460400.5
perihelion date2020-09-09.18260
perihelion JD2459101.68260
argument of perihelion (°)82.30622
ascending node (°)182.73452
inclination (°)6.25229
eccentricity0.0853817
perihelion distance (AU)2.1811605
Tisserand w.r.t. Jupiter3.5
ΔV w.r.t. Earth (km/sec)9.4
semimajor axis (AU)2.3847768
mean anomaly (°)347.60046
mean daily motion (°/day)0.26762840
aphelion distance (AU)2.588
period (years)3.68
P-vector [x]-0.08672862
P-vector [y]-0.95157604
P-vector [z]-0.29492573
Q-vector [x]0.99621842
Q-vector [y]-0.08438387
Q-vector [z]-0.02069329
absolute magnitude16.93
phase slope0.15
uncertainty0
referenceMPEC 2024-E23
observations used463
oppositions15
arc length (days)10035
first opposition used1995
last opposition used2023
residual rms (arc-secs)0.69
perturbers coarse indicatorM-v
perturbers precise indicator003Ek
first observation date used1995-09-24.0
last observation date used2023-03-16.0
computer nameMPCLINUX
JD of orbit computation2456966.791206
perihelion JD uncertainty (days)1.1576E-04
argument of perihelion uncertainty (°)5.0344E-05
ascending node uncertainty (°)4.0232E-05
inclination uncertainty (°)5.5369E-06
eccentricity uncertainty 4.0759E-08
perihelion distance uncertainty (AU)9.8715E-08
Minimum Orbit Intersection Distances (in AU)
for orbit epoch: 2460400.5, reference: E2024-FA5
Mercury1.72368
Venus1.46181
Earth1.17626
Mars0.66088
Jupiter2.45669
Saturn6.46888
Uranus16.0101
Neptune27.2954

Observations

476 total observations over interval: 1995 09 24.22608 – 2023 03 16.270281
These data are available for download (format description).

Date (UT) J2000 RA J2000 Dec Magn Location Ref
1995 09 24.22608 23 23 31.75 -02 17 59.7   691 – Steward Observatory, Kitt Peak-Spacewatch MPS 178504
1995 09 24.24678 23 23 30.70 -02 18 10.7 19.6 V 691 – Steward Observatory, Kitt Peak-Spacewatch MPS 178504
1995 09 24.26760 23 23 29.69 -02 18 21.5   691 – Steward Observatory, Kitt Peak-Spacewatch MPS 178504
2003 12 17.18115 04 16 17.33 +11 58 12.3 21.4 V 691 – Steward Observatory, Kitt Peak-Spacewatch MPS 178504
2003 12 17.20856 04 16 15.83 +11 58 10.5 21.2 V 691 – Steward Observatory, Kitt Peak-Spacewatch MPS 178504
2003 12 17.23612 04 16 14.32 +11 58 07.1 21.5 V 691 – Steward Observatory, Kitt Peak-Spacewatch MPS 178504
2005 03 09.38016 12 27 49.02 -03 35 54.2 17.5 R G96 – Mt. Lemmon Survey MPS 129306
2005 03 09.38671 12 27 48.74 -03 35 51.3 19.0 R G96 – Mt. Lemmon Survey MPS 129306
2005 03 09.39328 12 27 48.42 -03 35 48.3 17.5 R G96 – Mt. Lemmon Survey MPS 129306
2005 03 09.39982 12 27 48.13 -03 35 45.0 17.8 R G96 – Mt. Lemmon Survey MPS 129306
2005 03 13.27052 12 24 58.92 -03 05 05.3 19.7 V 691 – Steward Observatory, Kitt Peak-Spacewatch MPS 130082
2005 03 13.29557 12 24 57.65 -03 04 52.4 20.8   703 – Catalina Sky Survey MPS 129306
2005 03 13.30507 12 24 57.18 -03 04 48.2 20.8   703 – Catalina Sky Survey MPS 129306
2005 03 13.30527 12 24 57.28 -03 04 48.4 19.9 V 691 – Steward Observatory, Kitt Peak-Spacewatch MPS 130082
2005 03 13.31456 12 24 56.60 -03 04 42.1 17.9   703 – Catalina Sky Survey MPS 129306
2005 03 13.32404 12 24 56.20 -03 04 39.7 18.2   703 – Catalina Sky Survey MPS 129306
2005 03 13.33316 12 24 55.94 -03 04 34.7 19.9 V 691 – Steward Observatory, Kitt Peak-Spacewatch MPS 130082
2005 04 02.19953 12 08 23.30 -00 09 55.2 18.9 R G96 – Mt. Lemmon Survey MPS 130825
2005 04 02.20483 12 08 23.03 -00 09 52.3 19.0 R G96 – Mt. Lemmon Survey MPS 130825
2005 04 02.21016 12 08 22.73 -00 09 49.5 19.1 R G96 – Mt. Lemmon Survey MPS 130825
2005 04 02.21546 12 08 22.46 -00 09 46.8 19.1 R G96 – Mt. Lemmon Survey MPS 130825
2005 04 02.36132 12 08 14.92 -00 08 30.3 19.1 R G96 – Mt. Lemmon Survey MPS 130825
2005 04 02.36664 12 08 14.63 -00 08 27.4 18.9 R G96 – Mt. Lemmon Survey MPS 130825
2005 04 02.37202 12 08 14.37 -00 08 24.5 18.7 R G96 – Mt. Lemmon Survey MPS 130825
2005 04 02.37733 12 08 14.09 -00 08 21.7 16.4 R G96 – Mt. Lemmon Survey MPS 130825
2005 04 04.30223 12 06 40.14 +00 08 18.5 19.9 R 703 – Catalina Sky Survey MPS 130825
2005 04 04.31031 12 06 39.67 +00 08 23.1 19.0 R 703 – Catalina Sky Survey MPS 130825
2005 04 04.31849 12 06 39.24 +00 08 27.4 19.7 R 703 – Catalina Sky Survey MPS 130825
2005 04 04.32654 12 06 38.77 +00 08 32.0 19.7 R 703 – Catalina Sky Survey MPS 130825
2005 04 04.33104 12 06 38.65 +00 08 33.9 19.1 R G96 – Mt. Lemmon Survey MPS 130825
2005 04 04.33745 12 06 38.31 +00 08 37.4 19.0 R G96 – Mt. Lemmon Survey MPS 130825
2005 04 04.34387 12 06 38.01 +00 08 40.5 18.8 R G96 – Mt. Lemmon Survey MPS 130825
2005 04 04.35027 12 06 37.69 +00 08 44.0 18.8 R G96 – Mt. Lemmon Survey MPS 130825
2006 08 27.35724 23 12 36.84 -00 55 29.1 19.5 R 699 – Lowell Observatory-LONEOS MPS 177055
2006 08 27.37541 23 12 35.85 -00 55 40.2   699 – Lowell Observatory-LONEOS MPS 177055
2006 08 27.39363 23 12 35.15 -00 55 47.7   699 – Lowell Observatory-LONEOS MPS 177055
2006 08 27.41180 23 12 34.29 -00 55 55.8   699 – Lowell Observatory-LONEOS MPS 177055
2006 08 28.29841 23 11 52.54 -01 02 50.7 19.8 V 703 – Catalina Sky Survey MPS 177055
2006 08 28.30742 23 11 52.18 -01 02 54.9 20.2 V 703 – Catalina Sky Survey MPS 177055
2006 08 28.31650 23 11 51.61 -01 02 59.7 19.9 V 703 – Catalina Sky Survey MPS 177055
2006 08 28.32558 23 11 51.21 -01 03 04.9 19.8 V 703 – Catalina Sky Survey MPS 177055
2006 09 13.24109 22 58 38.67 -03 17 54.5 19.3 R 644 – Palomar Mountain/NEAT MPS 179349
2006 09 13.26441 22 58 37.46 -03 18 06.8 19.7 R 644 – Palomar Mountain/NEAT MPS 179349
2006 09 13.29475 22 58 35.93 -03 18 22.6 19.5 R 644 – Palomar Mountain/NEAT MPS 179349
2006 09 17.20506 22 55 28.09 -03 52 01.4 19.8 V 703 – Catalina Sky Survey MPS 179349
2006 09 17.21802 22 55 27.48 -03 52 08.8 20.6 V 703 – Catalina Sky Survey MPS 179349
2006 09 17.23104 22 55 26.83 -03 52 14.8 19.7 V 703 – Catalina Sky Survey MPS 179349
2006 09 17.24398 22 55 26.22 -03 52 20.8 19.9 V 703 – Catalina Sky Survey MPS 179349
2006 09 27.26492 22 48 24.22 -05 13 00.4 20.1 V G96 – Mt. Lemmon Survey MPS 181074
2006 09 27.27218 22 48 23.94 -05 13 03.7 20.1 V G96 – Mt. Lemmon Survey MPS 181074
2006 09 27.27943 22 48 23.68 -05 13 06.8 20.0 V G96 – Mt. Lemmon Survey MPS 181074
2006 09 27.28674 22 48 23.36 -05 13 10.2 20.0 V G96 – Mt. Lemmon Survey MPS 181074
2006 10 19.16639 22 41 05.85 -07 14 57.0 20.5 V G96 – Mt. Lemmon Survey MPS 182960
2006 10 19.17301 22 41 05.82 -07 14 58.2 20.6 V G96 – Mt. Lemmon Survey MPS 182960
2006 10 19.17961 22 41 05.78 -07 14 59.6 20.7 V G96 – Mt. Lemmon Survey MPS 182960
2006 10 19.18632 22 41 05.74 -07 15 00.8 20.5 V G96 – Mt. Lemmon Survey MPS 182960
2006 10 27.11510 22 41 40.81 -07 36 05.6 20.3 V G96 – Mt. Lemmon Survey MPS 185463
2006 10 27.12508 22 41 40.88 -07 36 06.8 20.4 V G96 – Mt. Lemmon Survey MPS 185463
2006 10 27.13508 22 41 41.02 -07 36 08.8 21.1 V G96 – Mt. Lemmon Survey MPS 185463
2006 10 27.14504 22 41 41.10 -07 36 09.3 21.1 V G96 – Mt. Lemmon Survey MPS 185463
2009 02 03.52516 15 06 41.97 -15 06 20.1 21.4 V G96 – Mt. Lemmon Survey MPS 272573
2009 02 03.53098 15 06 42.48 -15 06 20.8 21.5 V G96 – Mt. Lemmon Survey MPS 272573
2009 02 03.53683 15 06 42.94 -15 06 21.7 20.8 V G96 – Mt. Lemmon Survey MPS 272573
2009 02 03.54278 15 06 43.45 -15 06 23.4 20.5 V G96 – Mt. Lemmon Survey MPS 272573
2009 04 23.33385 15 45 58.98 -12 07 31.8 19.8 V 691 – Steward Observatory, Kitt Peak-Spacewatch MPS 284340
2009 04 23.35153 15 45 58.28 -12 07 25.0 19.8 V 691 – Steward Observatory, Kitt Peak-Spacewatch MPS 284340
2009 04 23.36923 15 45 57.60 -12 07 18.2 19.9 V 691 – Steward Observatory, Kitt Peak-Spacewatch MPS 284340
2009 04 25.70648 15 44 28.09 -11 51 55.6 21.0 R D29 – Purple Mountain Observatory, XuYi Station MPS 285676
2009 04 25.71976 15 44 27.54 -11 51 50.2 21.0 R D29 – Purple Mountain Observatory, XuYi Station MPS 285676
2009 04 25.73357 15 44 26.96 -11 51 44.7 20.5 R D29 – Purple Mountain Observatory, XuYi Station MPS 285676
2009 04 27.38433 15 43 18.91 -11 40 46.6 19.4 V 691 – Steward Observatory, Kitt Peak-Spacewatch MPS 285676
2009 04 27.40203 15 43 18.09 -11 40 40.4 19.6 V 691 – Steward Observatory, Kitt Peak-Spacewatch MPS 285676
2009 04 27.41967 15 43 17.32 -11 40 33.2 19.7 V 691 – Steward Observatory, Kitt Peak-Spacewatch MPS 285676
2009 05 01.33090 15 40 22.56 -11 14 28.7 19.6 V 691 – Steward Observatory, Kitt Peak-Spacewatch MPS 285676
2009 05 01.34859 15 40 21.68 -11 14 21.6 19.8 V 691 – Steward Observatory, Kitt Peak-Spacewatch MPS 285676
2009 05 01.36626 15 40 21.00 -11 14 14.5 20.8 V 691 – Steward Observatory, Kitt Peak-Spacewatch MPS 285676
2009 05 15.36169 15 28 13.40 -09 45 03.4 19.4 V 691 – Steward Observatory, Kitt Peak-Spacewatch MPS 286830
2009 05 15.37936 15 28 12.40 -09 44 57.3 19.5 V 691 – Steward Observatory, Kitt Peak-Spacewatch MPS 286830
2009 05 15.40073 15 28 11.19 -09 44 49.5 19.5 V 691 – Steward Observatory, Kitt Peak-Spacewatch MPS 286830
2010 09 29.43436 02 03 30.52 +09 03 35.8 19.9 V G96 – Mt. Lemmon Survey MPS 350930
2010 09 29.44014 02 03 30.31 +09 03 33.2 19.9 V G96 – Mt. Lemmon Survey MPS 350930
2010 09 29.44596 02 03 30.06 +09 03 30.8 20.3 V G96 – Mt. Lemmon Survey MPS 350930
2010 09 29.45184 02 03 29.80 +09 03 28.2 20.1 V G96 – Mt. Lemmon Survey MPS 350930
2010 10 07.384745 01 57 34.188 +08 05 12.84 20.47 w F51 – Pan-STARRS 1, Haleakala MPS 365241
2010 10 07.400221 01 57 33.402 +08 05 05.79 20.52 w F51 – Pan-STARRS 1, Haleakala MPS 365241
2010 10 07.415810 01 57 32.600 +08 04 58.61 20.39 w F51 – Pan-STARRS 1, Haleakala MPS 365241
2010 10 07.433276 01 57 31.717 +08 04 50.62 20.41 w F51 – Pan-STARRS 1, Haleakala MPS 365241
2010 10 10.39889 01 55 02.64 +07 41 54.9 20.0 V G96 – Mt. Lemmon Survey MPS 353531
2010 10 10.40577 01 55 02.28 +07 41 51.9 19.8 V G96 – Mt. Lemmon Survey MPS 353531
2010 10 10.41274 01 55 01.92 +07 41 48.4 20.1 V G96 – Mt. Lemmon Survey MPS 353531
